Medford, WI

12:14 PM CST on December 03, 2016 (GMT -0600)
Taylor County

Weather History for KMDZ - July, 2014

Change the Weather History Date:

Monday, July 21, 2014

  Actual Average Record
Temperature  
Mean Temperature 74 °F -  
Max Temperature 83 °F 79 °F 91 °F (1963)
Min Temperature 66 °F 56 °F 41 °F (1992)
Cooling Degree Days 10    
Growing Degree Days 24 (Base 50)    
Moisture  
Dew Point 67 °F    
Average Humidity 81    
Maximum Humidity 89    
Minimum Humidity 67    
Precipitation  
Precipitation 0.00 in - - ()
Sea Level Pressure  
Sea Level Pressure 29.99 in    
Wind  
Wind Speed 8 mph (South)    
Max Wind Speed 13 mph    
Max Gust Speed 18 mph    
Visibility 10 miles    
Events      
Averages and records for this station are not official NWS values.
T = Trace of Precipitation, MM = Missing Value Source: NWS Daily Summary

Daily Weather History Graph

Daily Weather History Graph

Search for Another Location

Airport or City:

Trip Planner

Search our weather history database for the weather conditions in past years. The results will help you decide how hot, cold, wet, or windy it might be!

Date:

Astronomy

Jul. 21, 2014 Rise Set
Actual Time 5:34 AM CDT 8:40 PM CDT
Civil Twilight 4:59 AM CDT 9:15 PM CDT
Nautical Twilight 4:13 AM CDT 10:00 PM CDT
Astronomical Twilight 3:18 AM CDT 10:55 PM CDT
Moon 1:28 AM CDT (7/21) 4:20 PM CDT (7/21)
Length of Visible Light 16h 16m
Length of Day
15h 06m
Waning Crescent, 24% of the Moon is Illuminated
Jul 21
Waning Crescent
Jul 26
New
Aug 3
First Quarter
Aug 10
Full
Aug 17
Last Quarter

Hourly Weather History & Observations

Time (CDT) Temp. Heat Index Dew Point Humidity Pressure Visibility Wind Dir Wind Speed Gust Speed Precip Events Conditions
12:15 AM 67.1 °F - 62.8 °F 86% 29.97 in 10.0 mi South 8.1 mph - N/A   Scattered Clouds
12:35 AM 66.2 °F - 62.8 °F 89% 29.96 in 10.0 mi South 8.1 mph - N/A   Clear
12:55 AM 66.2 °F - 62.8 °F 89% 29.96 in 10.0 mi South 9.2 mph - N/A   Clear
1:15 AM 66.2 °F - 62.6 °F 88% 29.96 in 10.0 mi South 8.1 mph - N/A   Clear
1:35 AM 66.4 °F - 62.6 °F 88% 29.95 in 10.0 mi South 10.4 mph - N/A   Clear
1:55 AM 66.6 °F - 62.8 °F 88% 29.95 in 10.0 mi South 8.1 mph - N/A   Mostly Cloudy
2:15 AM 67.1 °F - 62.8 °F 86% 29.95 in 10.0 mi South 6.9 mph - N/A   Overcast
2:35 AM 67.3 °F - 62.8 °F 85% 29.96 in 10.0 mi South 5.8 mph - N/A   Overcast
2:55 AM 67.1 °F - 62.8 °F 86% 29.97 in 10.0 mi South 5.8 mph - N/A   Overcast
3:15 AM 66.7 °F - 63.0 °F 88% 29.98 in 10.0 mi South 4.6 mph - N/A   Overcast
3:35 AM 67.1 °F - 63.0 °F 87% 29.98 in 10.0 mi South 6.9 mph - N/A   Overcast
3:55 AM 67.1 °F - 63.0 °F 87% 29.98 in 10.0 mi South 6.9 mph - N/A   Overcast
4:15 AM 67.1 °F - 62.8 °F 86% 29.98 in 10.0 mi South 6.9 mph - N/A   Overcast
4:35 AM 66.9 °F - 63.0 °F 87% 29.98 in 10.0 mi SSE 5.8 mph - N/A   Overcast
4:55 AM 66.4 °F - 63.0 °F 89% 29.98 in 10.0 mi South 6.9 mph - N/A   Overcast
5:15 AM 66.2 °F - 63.0 °F 89% 29.99 in 10.0 mi SSE 6.9 mph - N/A   Overcast
5:35 AM 66.2 °F - 63.0 °F 89% 29.99 in 10.0 mi South 6.9 mph - N/A   Overcast
5:55 AM 66.2 °F - 63.0 °F 89% 30.00 in 10.0 mi South 5.8 mph - N/A   Overcast
6:15 AM 66.2 °F - 62.8 °F 89% 30.00 in 10.0 mi South 4.6 mph - N/A   Overcast
6:35 AM 66.4 °F - 63.1 °F 89% 30.00 in 10.0 mi South 5.8 mph - N/A   Overcast
6:55 AM 66.4 °F - 63.1 °F 89% 30.00 in 10.0 mi South 5.8 mph - N/A   Overcast
7:15 AM 66.7 °F - 63.5 °F 89% 30.00 in 10.0 mi South 8.1 mph - N/A   Overcast
7:35 AM 67.1 °F - 63.5 °F 88% 30.01 in 10.0 mi South 5.8 mph - N/A   Overcast
7:55 AM 67.5 °F - 63.7 °F 88% 30.01 in 10.0 mi South 8.1 mph - N/A   Overcast
8:35 AM 68.4 °F - 64.2 °F 87% 30.01 in 10.0 mi South 9.2 mph - N/A   Overcast
8:55 AM 69.3 °F - 64.6 °F 85% 30.02 in 10.0 mi SSW 6.9 mph - N/A   Overcast
9:15 AM 69.8 °F - 65.1 °F 85% 30.02 in 10.0 mi South 6.9 mph - N/A   Overcast
9:35 AM 70.5 °F - 65.1 °F 83% 30.01 in 10.0 mi SSW 9.2 mph - N/A   Overcast
9:55 AM 71.6 °F - 65.8 °F 82% 30.01 in 10.0 mi South 9.2 mph - N/A   Overcast
10:15 AM 72.7 °F - 66.0 °F 80% 30.01 in 10.0 mi South 9.2 mph - N/A   Overcast
10:35 AM 73.4 °F - 66.7 °F 80% 30.02 in 10.0 mi SSW 8.1 mph - N/A   Mostly Cloudy
10:55 AM 74.3 °F - 67.3 °F 79% 30.02 in 10.0 mi South 6.9 mph - N/A   Scattered Clouds
11:15 AM 75.6 °F - 68.2 °F 78% 30.02 in 10.0 mi South 5.8 mph - N/A   Scattered Clouds
11:35 AM 76.3 °F - 68.5 °F 77% 30.02 in 10.0 mi South 8.1 mph - N/A   Clear
11:55 AM 77.4 °F - 69.1 °F 76% 30.02 in 10.0 mi South 8.1 mph - N/A   Clear
12:15 PM 78.1 °F - 69.4 °F 75% 30.02 in 10.0 mi SSW 8.1 mph - N/A   Clear
12:35 PM 79.0 °F - 70.3 °F 75% 30.01 in 10.0 mi SSW 9.2 mph - N/A   Clear
12:55 PM 79.5 °F - 70.5 °F 74% 30.01 in 10.0 mi SSE 8.1 mph - N/A   Scattered Clouds
1:15 PM 79.9 °F - 70.7 °F 73% 30.01 in 10.0 mi South 10.4 mph - N/A   Scattered Clouds
1:35 PM 80.1 °F 83.4 °F 70.9 °F 73% 30.01 in 10.0 mi SSE 11.5 mph - N/A   Scattered Clouds
1:55 PM 81.1 °F 85.0 °F 70.9 °F 71% 30.01 in 10.0 mi SSE 8.1 mph - N/A   Scattered Clouds
2:15 PM 81.5 °F 85.5 °F 71.1 °F 70% 30.00 in 10.0 mi SSE 8.1 mph - N/A   Scattered Clouds
2:35 PM 82.2 °F 86.6 °F 71.1 °F 69% 30.00 in 10.0 mi South 12.7 mph - N/A   Scattered Clouds
2:55 PM 82.4 °F 87.0 °F 71.2 °F 69% 30.00 in 10.0 mi South 11.5 mph - N/A   Scattered Clouds
3:15 PM 83.5 °F 88.8 °F 71.8 °F 68% 30.00 in 10.0 mi South 11.5 mph 18.4 mph N/A   Mostly Cloudy
3:35 PM 83.7 °F 89.2 °F 72.0 °F 68% 30.00 in 10.0 mi South 11.5 mph 16.1 mph N/A   Mostly Cloudy
3:55 PM 83.5 °F 88.5 °F 71.6 °F 67% 30.00 in 10.0 mi South 11.5 mph - N/A   Overcast
4:15 PM 82.0 °F 86.5 °F 71.4 °F 70% 30.00 in 10.0 mi South 11.5 mph - N/A   Overcast
4:35 PM 82.0 °F 86.7 °F 71.6 °F 71% 29.99 in 10.0 mi South 10.4 mph - N/A   Overcast
4:55 PM 81.9 °F 86.2 °F 71.4 °F 70% 29.99 in 10.0 mi South 9.2 mph - N/A   Overcast
5:15 PM 81.5 °F 85.7 °F 71.2 °F 71% 29.99 in 10.0 mi South 9.2 mph - N/A   Overcast
5:35 PM 81.1 °F 85.2 °F 71.4 °F 72% 29.99 in 10.0 mi South 9.2 mph - N/A   Overcast
5:55 PM 81.0 °F 85.1 °F 71.6 °F 73% 29.99 in 10.0 mi South 9.2 mph - N/A   Overcast
6:15 PM 81.5 °F 85.9 °F 71.6 °F 72% 29.99 in 10.0 mi South 9.2 mph - N/A   Mostly Cloudy
6:35 PM 81.0 °F 85.2 °F 71.8 °F 74% 29.99 in 10.0 mi SSE 10.4 mph - N/A   Mostly Cloudy
6:55 PM 79.7 °F - 71.6 °F 76% 29.99 in 10.0 mi SSE 8.1 mph - N/A   Overcast
7:15 PM 79.7 °F - 70.9 °F 74% 29.97 in 10.0 mi SSE 11.5 mph - N/A   Mostly Cloudy
7:35 PM 78.6 °F - 70.7 °F 77% 29.97 in 10.0 mi SSE 9.2 mph - N/A   Scattered Clouds
7:55 PM 77.9 °F - 70.5 °F 78% 29.97 in 10.0 mi South 9.2 mph - N/A   Clear
8:15 PM 76.3 °F - 70.5 °F 82% 29.97 in 10.0 mi SSE 5.8 mph - N/A   Clear
8:35 PM 75.2 °F - 70.2 °F 84% 29.97 in 10.0 mi South 6.9 mph - N/A   Clear
8:55 PM 74.3 °F - 69.8 °F 86% 29.97 in 10.0 mi SSE 8.1 mph - N/A   Clear
9:15 PM 73.6 °F - 69.3 °F 86% 29.97 in 10.0 mi South 6.9 mph - N/A   Clear
9:35 PM 73.4 °F - 68.7 °F 85% 29.98 in 10.0 mi South 5.8 mph - N/A   Clear
9:55 PM 73.8 °F - 68.2 °F 83% 29.99 in 10.0 mi South 8.1 mph - N/A   Clear
10:15 PM 72.7 °F - 68.0 °F 85% 29.97 in 10.0 mi South 8.1 mph - N/A   Clear
10:35 PM 73.4 °F - 67.8 °F 83% 29.97 in 10.0 mi South 10.4 mph - N/A   Clear
10:55 PM 73.4 °F - 67.1 °F 81% 29.97 in 10.0 mi South 9.2 mph - N/A   Clear
11:15 PM 72.5 °F - 67.1 °F 83% 29.96 in 10.0 mi SSE 9.2 mph - N/A   Scattered Clouds
11:35 PM 71.8 °F - 67.1 °F 85% 29.94 in 10.0 mi SSE 10.4 mph - N/A   Scattered Clouds
11:55 PM 71.1 °F - 67.3 °F 88% 29.95 in 10.0 mi South 9.2 mph - N/A   Clear